Location: Catstown
(52.4386°N, 7.2633°W)
Time: 13:28:12
(UTC+00:00)

CENTAUR R/B - Pass Details

Date: 18 September 2020
Orbit: 755 x 1433 km, 63.4° (Epoch: 02 October)

Event Time Altitude Azimuth Distance (km) Brightness Sun altitude
Rises 19:20:30 0° 308° (NW) 3,967 7.0 -7.5°
Reaches altitude 10° 19:23:07 10° 313° (NW) 3,098 6.2 -7.9°
Maximum altitude 19:30:37 57° 32° (NNE) 1,508 3.4 -9.1°
Enters shadow 19:38:32 12° 109° (ESE) 3,313 4.6 -10.2°
